Wind_Speed
11 11 10 9 10 10 10 11 12 12 11 12 12 12 11 10 10 9 9 10 10 10 11 11 11 9 9 10 10 10 11 11 10 10 11 11 11 11 12 13 15 16 17 18 17 17 18 18 18 18 18 18 18 18 18 19 19 20 19 18 18 18 17 16 16 15 14 14 14 14 14 15 17 17 17 17 17 17 18 17 16 15 14 14 13
13 12 11 11 10 10 11 12 13 13 13 13 14 13 13 12 11 10 10 11 12 12 12 13 12 11 9 9 10 11 11 11 11 12 12 12 13 13 13 15 15 17 18 17 17 17 18 19 20 19 18 18 19 18 19 18 19 19 18 17 17 18 17 16 16 15 15 14 14 14 14 15 16 17 17 18 18 18 18 18 17 16 15 14 14
15 14 13 12 11 11 11 12 13 13 14 15 15 15 14 13 12 11 11 12 12 12 13 14 13 13 11 11 12 13 12 12 13 13 13 14 14 14 15 15 16 17 17 17 17 18 19 21 21 20 19 19 19 18 18 18 18 18 17 16 17 17 16 16 15 15 15 15 15 14 14 15 16 16 17 17 18 18 18 18 17 17 16 15 14
16 15 14 14 13 13 13 13 13 14 15 16 16 16 15 14 13 13 13 13 13 13 13 14 14 14 13 13 14 14 14 14 14 14 14 14 14 15 15 15 15 16 17 17 18 18 19 20 20 20 20 19 18 17 16 17 17 16 16 16 16 16 16 15 15 15 15 15 15 15 15 15 15 16 16 17 17 18 18 18 17 17 17 16 15
18 17 17 16 16 15 14 14 14 15 16 17 17 17 16 15 15 14 14 14 13 13 14 14 14 15 15 14 14 15 16 16 16 16 16 15 15 16 16 16 16 16 17 17 18 18 19 20 19 19 19 18 16 16 15 16 16 15 15 16 16 16 16 15 16 16 16 16 15 15 15 15 15 15 15 16 17 17 18 18 17 17 17 17 17
19 19 19 19 18 17 16 15 15 15 16 16 17 17 16 16 16 16 16 15 14 13 14 14 15 16 16 15 15 16 17 19 18 18 17 17 16 16 16 16 17 17 16 17 17 18 19 19 19 19 18 17 16 16 15 15 16 16 16 16 16 17 17 16 16 16 15 15 14 14 14 14 14 15 15 16 16 17 17 17 16 16 15 16 16
21 21 21 20 20 19 17 17 17 16 16 16 17 17 17 17 17 17 16 16 14 14 14 15 16 16 15 14 15 16 18 19 19 17 17 16 16 16 16 16 17 16 16 16 17 18 18 18 19 19 18 17 16 15 14 13 15 16 16 16 16 17 17 16 15 14 13 12 12 13 13 14 14 14 14 14 15 15 15 15 15 15 14 14 14
21 22 22 22 21 20 19 19 18 17 17 17 17 17 17 19 18 17 17 16 15 14 15 16 17 16 14 14 15 16 18 19 18 15 14 13 14 14 15 16 15 15 16 16 17 17 17 17 18 18 18 17 16 14 13 13 16 16 16 16 16 16 15 14 13 12 11 11 12 12 13 13 13 13 13 13 13 13 14 14 15 15 15 14 13
21 22 23 23 22 22 21 21 20 18 18 17 17 18 18 19 19 18 17 16 15 15 16 17 17 16 14 14 15 16 18 18 16 13 12 12 13 13 14 14 14 15 16 16 16 17 17 16 17 18 18 17 16 14 13 14 15 16 16 16 16 15 13 12 12 12 11 11 11 12 12 12 13 13 12 12 13 13 14 14 14 15 15 14 13
21 22 23 23 23 23 23 23 21 21 20 18 18 19 19 19 19 18 17 16 16 15 16 16 16 15 13 14 15 16 17 16 13 12 12 12 13 13 13 14 15 15 16 16 17 17 17 16 16 17 17 16 16 15 14 14 15 15 15 15 15 14 14 13 13 13 12 12 12 11 11 12 12 13 13 12 13 13 13 13 13 13 14 14 14
21 21 22 22 23 24 24 25 24 23 21 19 19 19 18 19 19 18 17 16 15 15 15 16 16 14 13 14 16 17 16 14 11 11 12 13 13 14 14 15 15 16 16 16 17 17 16 15 16 16 16 15 14 14 14 14 14 15 14 14 13 14 14 14 13 13 13 12 12 11 11 11 12 13 13 13 13 12 12 12 13 13 13 13 13
19 20 20 21 22 23 24 26 26 25 22 20 18 18 18 19 19 18 17 15 14 14 15 15 15 14 13 15 17 17 15 12 11 11 11 12 13 14 15 15 15 15 16 17 17 17 16 15 15 15 15 15 14 14 15 15 14 14 14 13 13 13 14 14 13 13 13 13 13 13 12 12 12 13 13 13 13 13 13 13 13 14 14 13 13
18 19 19 20 21 22 24 27 28 26 23 20 18 19 20 20 19 18 16 15 14 14 14 14 14 13 13 15 16 15 14 12 11 11 11 12 13 13 14 14 15 15 16 17 18 17 16 15 15 15 15 14 14 14 15 15 14 14 14 13 13 13 13 13 13 13 14 14 14 14 14 14 13 13 14 14 14 14 15 15 15 15 15 15 15
18 19 19 20 21 22 24 27 28 27 24 20 20 20 21 20 19 18 17 16 15 13 13 13 13 12 13 15 15 14 13 11 10 10 10 11 12 12 13 13 14 15 15 16 17 17 17 17 16 15 14 14 14 14 14 14 14 14 14 13 13 13 13 13 14 14 14 15 15 15 15 15 14 14 15 15 15 15 16 16 16 16 17 17 16
17 18 20 21 21 22 24 26 28 27 24 22 22 21 21 20 19 19 18 17 14 12 12 12 12 12 13 14 14 13 11 10 10 10 10 10 11 12 12 13 14 15 15 15 16 16 17 17 16 15 14 13 13 13 14 14 14 13 13 13 12 12 13 13 14 14 14 15 15 16 16 16 16 16 16 16 16 16 16 16 16 17 17 17 17
16 18 21 21 21 22 24 26 27 26 25 24 23 23 22 21 20 20 19 17 14 13 12 12 11 11 12 13 13 12 10 9 9 9 9 10 10 11 12 13 14 15 15 14 15 15 16 17 16 15 13 12 12 13 13 13 13 13 12 12 12 12 13 13 13 14 15 15 16 17 17 17 17 16 16 16 15 15 15 15 15 16 16 16 16
17 19 21 21 22 24 25 26 26 26 26 26 25 24 24 23 22 21 19 17 16 14 12 12 11 10 11 12 12 12 10 8 9 9 9 9 10 11 12 13 14 14 14 14 13 14 15 16 16 14 11 11 12 12 12 12 12 12 12 12 12 12 13 13 14 15 16 16 17 17 18 17 17 16 16 15 15 15 14 14 14 13 13 13 13
18 19 20 21 23 24 25 25 25 26 27 27 27 26 25 24 23 22 20 18 17 15 13 12 11 9 11 12 11 11 10 8 8 9 9 9 10 11 12 13 14 14 13 12 12 12 14 15 14 11 10 11 11 11 11 11 11 11 11 12 12 13 14 15 15 16 16 16 16 16 16 16 16 16 16 16 15 14 14 13 12 12 12 12 13
17 18 19 20 22 23 24 24 24 25 27 28 28 27 26 24 24 23 21 20 18 15 13 12 11 10 10 12 11 11 10 9 8 9 9 9 10 11 12 13 14 13 12 11 11 11 12 13 12 10 10 10 11 11 10 10 11 11 12 13 15 16 16 16 16 15 15 14 14 14 14 14 15 16 15 15 14 13 13 13 13 14 14 15 16
16 16 17 18 20 21 22 22 22 23 25 27 28 27 26 25 26 25 23 22 19 16 14 12 11 10 11 12 11 11 11 9 8 8 9 9 10 10 12 13 14 14 13 11 10 9 11 11 11 10 10 10 10 9 9 10 11 12 14 15 17 17 16 15 14 13 13 13 13 13 13 14 15 15 14 13 13 12 12 13 14 15 16 17 17
15 15 15 17 18 19 19 20 21 22 24 26 27 27 26 26 27 28 26 23 20 17 15 13 11 10 11 12 11 11 12 10 8 8 8 9 9 10 12 13 13 13 13 11 9 9 9 10 10 10 10 10 10 9 9 11 12 14 15 17 17 16 14 13 12 12 12 12 13 13 13 13 13 13 13 13 13 13 13 14 15 16 16 17 17
15 15 15 17 18 18 18 19 20 21 22 24 26 26 26 27 28 29 27 22 18 16 14 12 12 11 12 13 12 12 12 10 8 8 9 9 9 9 11 12 13 13 12 11 9 8 9 9 9 9 10 10 9 9 10 12 14 15 17 17 16 14 12 11 11 11 12 12 12 12 12 13 13 12 12 12 13 14 15 16 16 17 18 18 18
17 16 16 17 16 16 17 18 19 19 20 22 24 26 26 27 27 28 27 23 20 18 13 11 12 12 13 13 13 13 12 10 8 8 9 9 9 9 10 12 12 12 12 10 9 8 8 8 9 9 10 10 9 9 11 13 15 16 17 16 14 12 11 10 11 11 12 12 12 12 12 12 12 12 13 13 14 15 16 17 17 18 18 18 18
18 17 16 16 16 16 17 17 18 19 20 21 23 25 25 25 25 26 26 23 22 19 13 12 14 14 13 13 14 14 13 11 9 9 9 9 9 9 10 12 12 12 11 10 9 8 7 8 9 9 9 9 9 10 12 14 16 16 16 15 13 10 10 10 11 11 12 12 12 12 12 12 13 13 13 14 15 15 16 16 16 17 17 18 18
18 17 17 18 19 19 19 19 18 18 20 21 22 24 25 26 25 25 25 23 23 20 15 14 15 16 15 14 15 15 14 12 9 9 10 9 9 9 10 11 12 12 11 10 9 8 8 8 9 9 9 9 10 12 14 15 15 15 14 13 11 9 10 11 12 12 13 13 13 13 13 13 14 14 14 14 15 15 15 15 16 16 17 18 18
18 18 19 19 20 20 21 20 18 18 20 22 22 24 26 26 24 23 24 22 23 21 16 15 16 17 16 15 16 17 15 12 10 9 10 10 9 9 10 11 12 12 11 10 8 8 8 8 8 8 8 9 11 13 14 15 14 14 14 13 11 10 11 12 12 13 13 13 13 13 14 14 15 15 14 14 15 15 15 15 16 16 17 18 18
19 19 19 18 18 19 20 20 19 18 20 22 23 24 26 24 21 22 22 20 20 20 17 15 16 17 16 16 17 17 16 13 10 10 10 10 9 9 9 11 12 12 11 10 8 8 9 9 8 8 8 10 12 14 15 15 14 13 13 13 12 11 12 13 13 14 14 14 14 14 14 14 15 15 14 14 15 15 16 16 16 17 17 18 18
19 19 18 17 17 18 19 20 20 20 20 22 23 25 25 22 20 21 21 18 18 18 16 16 16 16 16 17 18 18 16 13 11 10 11 11 10 9 9 10 12 12 11 10 9 9 9 9 9 8 9 11 13 15 15 14 14 13 12 13 13 12 13 14 14 14 14 14 14 15 15 14 15 15 14 15 15 16 16 16 16 17 17 18 19
19 18 17 17 17 18 19 20 21 21 21 22 23 24 24 22 21 21 20 18 17 18 17 17 17 16 16 17 17 18 17 14 12 11 11 11 11 10 9 9 11 12 11 11 10 10 10 10 9 9 10 12 14 15 15 15 14 12 12 13 13 13 13 14 14 14 14 15 15 15 15 15 15 15 15 16 16 16 16 16 17 17 18 19 19
17 16 16 17 18 19 20 23 23 20 20 23 23 22 23 23 21 21 21 19 17 17 18 19 17 15 15 17 17 18 17 15 13 13 12 11 11 11 10 10 10 11 11 11 11 11 11 11 10 10 11 13 15 16 16 15 14 13 12 13 13 13 13 14 14 15 15 15 15 16 16 17 17 16 16 17 17 16 16 17 17 18 18 19 20
17 16 15 17 18 19 21 23 23 19 17 22 24 21 20 20 20 21 22 20 18 18 19 20 18 16 15 16 18 18 17 15 14 14 12 11 11 11 11 10 11 11 11 12 12 12 12 12 11 11 12 14 15 16 16 15 15 14 13 13 14 14 14 14 15 15 15 15 16 16 16 17 18 17 17 17 17 17 17 18 18 18 19 19 20
17 15 14 17 19 20 20 22 24 20 16 19 22 21 20 18 18 22 23 22 21 19 19 20 19 17 17 17 18 18 17 16 15 15 13 12 11 11 11 11 11 11 11 12 12 12 12 12 12 12 13 14 15 16 17 16 16 15 14 14 14 15 14 14 14 14 15 15 16 16 17 17 18 18 18 18 18 18 18 19 19 19 19 20 20
15 13 15 18 19 20 19 20 23 22 18 19 21 21 19 18 19 22 23 23 22 20 20 20 20 19 18 17 18 17 17 16 16 15 14 13 12 11 11 11 12 12 12 12 12 13 13 13 13 13 13 13 15 16 17 16 16 15 15 15 15 15 15 14 14 14 15 15 16 16 17 18 18 18 18 19 18 18 19 19 19 20 20 20 21
14 14 17 18 19 19 19 20 22 22 20 20 22 22 20 20 20 21 22 22 21 21 21 21 20 19 17 17 17 17 17 17 17 16 15 13 12 12 11 11 12 13 12 12 13 13 13 13 13 14 13 13 14 16 16 16 15 15 15 15 15 16 16 15 15 15 15 15 15 16 17 18 19 19 19 19 19 19 19 19 20 20 20 21 21
13 16 18 19 19 19 19 20 21 22 22 20 21 22 22 22 21 21 21 21 20 21 22 22 21 18 16 16 17 17 18 18 18 17 15 13 12 12 12 12 12 13 13 13 14 14 14 14 14 14 14 14 15 16 16 16 15 15 15 16 16 17 16 16 16 16 16 16 16 16 17 18 19 19 19 19 19 19 20 20 20 21 21 21 22
13 16 18 19 19 19 20 21 21 22 22 21 21 22 23 23 22 20 20 21 21 23 23 22 21 18 16 16 17 18 18 19 19 17 15 13 13 13 13 13 13 13 13 14 15 15 15 15 15 15 15 15 15 16 16 16 15 15 16 16 17 17 17 17 17 17 17 17 17 17 18 18 18 19 19 20 20 20 20 21 21 21 22 22 22
16 17 17 18 19 19 19 21 23 23 21 20 21 22 23 25 23 19 19 22 24 26 26 23 20 17 15 15 17 18 18 19 19 16 14 14 14 14 14 14 14 14 14 15 15 15 16 16 16 15 15 15 16 16 16 16 15 16 16 17 18 18 18 18 18 18 17 18 18 18 19 19 19 20 20 20 21 21 22 22 22 22 22 22 22
18 16 16 18 19 19 20 21 24 24 22 21 23 23 23 25 24 21 21 23 23 25 27 25 21 17 15 15 17 19 19 19 18 15 14 15 15 15 15 15 15 15 15 16 16 16 16 16 16 16 16 16 17 17 17 16 16 16 17 18 19 19 19 19 18 18 18 18 18 19 19 20 20 21 21 21 22 22 23 22 22 22 23 23 23
17 16 16 17 18 20 20 20 21 23 23 22 22 21 21 22 23 23 23 23 25 27 27 26 22 17 15 15 16 18 19 18 16 14 15 16 16 16 16 16 16 15 15 16 16 17 17 16 16 16 16 16 17 18 18 17 17 17 17 18 19 20 20 20 19 19 19 19 19 19 20 20 20 21 22 22 23 23 23 23 23 23 23 23 23
17 16 15 17 18 18 18 18 19 20 21 20 19 18 18 18 19 20 21 23 27 29 27 26 25 19 15 14 14 16 17 15 14 15 16 17 17 17 17 17 16 16 16 16 17 18 18 17 17 17 17 17 18 18 18 18 17 17 18 19 20 20 21 21 20 19 19 19 19 20 20 20 20 21 22 22 23 23 23 23 23 23 23 23 24
16 16 16 17 18 16 17 18 17 18 17 16 16 15 15 16 16 17 20 23 24 24 23 24 25 22 16 13 13 14 14 15 16 18 19 19 18 18 17 17 16 16 16 17 18 19 19 18 18 18 18 18 19 19 19 18 18 18 18 19 20 21 21 21 21 20 20 20 19 19 20 20 20 21 21 22 23 23 23 23 23 23 23 24 25
16 16 17 17 17 16 17 17 17 17 15 13 14 13 12 14 15 17 20 20 19 19 21 21 22 21 18 16 14 13 14 16 20 20 20 20 19 18 17 17 17 17 16 17 19 19 19 19 18 19 19 19 19 20 20 19 18 18 18 19 20 21 21 21 21 21 20 20 19 19 20 20 20 21 22 22 23 23 23 23 23 23 24 24 25
15 16 17 17 16 15 16 15 15 15 12 10 11 10 10 12 14 19 20 16 18 22 20 17 17 18 20 19 16 14 17 20 22 21 21 20 19 18 18 18 18 17 17 18 19 20 20 19 19 20 20 20 20 20 20 19 19 19 19 19 20 21 22 21 21 22 21 21 20 20 20 21 21 21 22 22 23 23 23 23 23 24 24 24 25
15 16 16 16 16 15 13 12 11 11 10 9 7 5 6 9 11 16 18 17 18 21 18 15 15 16 17 18 18 19 21 22 22 21 21 21 19 19 19 19 18 18 18 19 19 20 20 20 20 20 20 21 21 21 21 20 20 19 19 20 21 22 22 22 22 22 22 22 21 21 21 21 21 22 22 23 23 23 23 23 24 24 25 25 25
16 16 15 14 14 13 10 9 8 7 7 6 5 2 5 8 9 12 16 17 18 21 20 17 15 14 13 14 16 19 21 20 20 21 21 21 20 20 19 19 18 18 18 19 20 21 21 21 21 21 21 21 21 22 22 21 20 20 20 20 21 22 22 22 22 22 23 22 22 22 22 22 22 22 23 23 23 23 23 23 23 24 25 26 26
17 15 13 13 12 11 9 8 8 7 6 6 6 5 5 7 7 8 12 15 20 24 21 17 14 11 8 8 10 14 17 18 19 20 21 21 20 20 19 19 19 19 19 20 21 21 22 21 21 21 21 21 22 22 22 21 21 21 21 21 21 22 23 23 22 23 23 23 23 23 23 22 22 22 23 23 23 22 23 23 23 24 25 25 26
16 15 13 11 10 9 9 9 8 7 7 7 8 8 6 5 2 5 8 13 21 26 22 17 13 10 7 7 9 13 15 17 18 20 21 21 20 20 19 19 19 19 20 21 21 22 22 22 21 21 21 21 21 21 21 21 21 21 21 21 21 22 22 22 22 23 23 23 24 24 24 23 23 23 22 23 23 22 22 22 23 24 24 24 26
15 14 12 11 10 8 8 8 8 7 6 7 7 6 5 4 2 4 5 8 17 24 24 19 14 12 11 11 12 14 15 17 18 19 20 20 20 20 19 19 19 19 20 21 22 22 22 22 22 21 21 21 21 21 21 21 21 21 21 21 21 21 21 21 21 22 22 23 24 24 24 24 24 23 23 22 22 22 22 23 23 23 24 25 26
14 13 12 11 9 8 8 7 7 6 5 5 5 5 5 5 3 5 6 7 11 18 23 22 17 15 15 15 16 16 16 17 18 19 20 20 20 20 20 19 20 20 21 22 22 23 23 23 22 22 22 21 21 21 21 21 21 21 21 21 21 21 20 20 21 21 22 23 23 24 24 23 23 23 23 23 22 22 22 23 24 24 25 26 27
14 13 12 10 9 8 7 7 6 5 5 5 5 5 6 5 6 8 10 11 12 16 22 24 22 21 20 20 21 20 19 19 20 20 21 21 20 20 20 21 20 21 22 23 22 23 23 23 23 23 22 21 21 21 21 21 21 21 21 21 21 21 20 20 21 21 22 23 23 23 23 23 23 22 22 22 22 23 23 24 24 25 25 27 28
14 13 12 10 9 8 7 6 6 5 6 6 6 6 7 7 9 11 12 14 15 17 21 26 27 26 25 25 25 24 23 22 22 22 23 23 22 22 22 22 22 22 22 22 22 22 23 23 23 23 22 21 21 20 20 20 20 21 21 20 20 20 20 20 20 21 22 23 23 23 23 23 24 24 23 21 20 20 22 24 25 25 26 26 28
Wind_Direction
226 224 224 226 233 241 247 251 254 257 261 264 265 267 270 272 276 281 287 295 303 315 325 330 331 327 317 311 308 301 294 293 295 295 297 302 307 311 313 312 315 317 315 316 320 322 324 325 326 326 322 318 316 314 314 315 316 315 314 313 312 311 311 313 315 316 316 314 308 303 300 299 298 298 300 301 302 302 302 303 304 304 305 305 305
230 229 229 230 233 238 244 249 254 258 260 263 266 269 272 275 278 282 288 294 302 314 322 326 328 325 315 304 299 296 294 296 299 301 303 308 312 314 313 313 315 314 313 317 321 322 324 325 326 325 321 318 316 315 314 314 315 314 313 311 311 311 310 311 313 314 314 314 312 308 302 298 297 297 298 299 299 299 299 299 300 299 299 300 301
233 232 232 233 235 237 241 246 251 257 258 261 265 269 273 276 279 282 288 293 301 312 319 322 323 319 311 302 300 302 301 300 299 300 305 311 312 312 311 311 314 314 314 318 319 322 324 324 324 323 321 320 319 318 315 314 314 315 315 314 313 311 310 308 309 309 310 311 311 308 304 301 299 299 300 300 301 301 302 302 300 296 293 294 298
237 236 235 237 238 237 239 243 247 252 255 259 262 266 272 276 279 281 286 292 299 308 314 318 317 311 305 302 305 306 304 300 299 302 307 311 311 309 310 312 315 314 315 317 318 322 322 321 323 322 321 321 321 320 317 316 317 318 318 316 314 314 314 310 308 308 309 310 311 310 308 306 306 306 305 304 304 305 306 306 304 299 292 289 292
239 239 239 240 241 240 240 241 243 247 251 257 261 264 269 274 278 281 284 288 295 304 311 312 308 304 302 304 307 309 308 308 309 311 313 314 312 309 311 313 315 315 315 315 317 321 321 319 320 320 321 322 320 319 315 315 317 317 315 314 314 317 318 314 312 311 311 313 313 313 312 311 312 311 311 309 309 309 310 311 308 304 297 291 287
239 241 242 243 245 245 242 241 243 245 248 255 260 264 269 271 274 278 282 287 293 302 307 304 300 300 304 308 311 313 315 316 317 316 313 310 308 307 311 313 316 316 316 316 318 321 319 317 318 320 322 320 318 318 315 314 312 311 312 315 318 319 320 320 319 317 315 315 314 314 315 316 317 317 316 316 315 316 316 316 313 309 304 298 291
239 241 243 246 247 247 244 242 244 246 249 253 259 264 268 269 271 276 281 287 292 299 300 297 298 301 307 311 313 316 318 317 316 314 308 304 303 306 311 314 316 318 318 320 321 320 317 316 316 318 319 317 316 318 317 314 311 311 315 320 323 324 326 329 328 325 322 320 318 319 321 322 322 323 323 322 322 322 321 321 319 316 313 309 304
238 241 243 245 248 249 246 244 244 247 249 251 256 261 264 267 270 274 279 283 288 292 294 297 300 303 308 310 312 315 315 314 314 312 308 304 304 308 311 314 317 319 320 321 321 319 318 317 316 316 317 314 316 320 318 315 314 317 321 326 329 331 334 337 335 332 332 331 327 327 329 330 329 330 330 329 330 328 327 327 325 324 323 321 319
237 240 242 244 247 249 248 246 245 245 247 249 253 256 260 265 268 272 276 280 284 287 293 299 301 302 306 307 309 311 311 312 313 313 311 309 309 310 311 313 317 319 319 320 320 320 319 319 317 315 316 317 320 323 319 316 317 320 326 332 336 337 340 344 343 340 345 346 341 339 338 338 336 336 336 335 335 335 334 333 332 330 329 328 325
235 238 241 244 246 248 248 247 245 244 244 246 249 254 259 263 267 270 273 278 281 286 294 299 299 301 303 304 305 307 310 312 313 312 313 313 314 315 314 315 318 318 318 320 320 320 320 319 316 314 316 320 324 324 321 319 320 324 331 336 337 338 342 349 352 349 354 358 353 349 346 343 340 339 341 342 342 342 340 339 337 335 333 330 326
232 236 240 243 245 247 248 247 245 243 242 243 247 253 259 263 265 268 271 276 280 287 294 297 297 297 299 302 305 308 311 314 313 312 313 315 316 316 316 317 319 319 319 321 322 321 320 318 316 315 318 324 328 328 325 324 325 328 333 335 337 341 345 352 356 351 354 2 359 355 352 349 346 344 345 347 349 349 347 345 342 340 338 333 329
230 234 237 241 243 246 246 246 244 243 243 243 246 251 256 260 262 266 269 272 277 285 291 295 295 294 297 302 306 307 309 313 312 311 313 314 315 315 315 318 319 320 321 322 323 322 320 320 320 320 323 329 332 331 329 329 330 331 332 334 339 345 349 354 357 354 356 1 359 356 355 355 352 348 348 349 350 351 350 348 345 343 342 338 334
230 233 234 237 241 244 245 244 243 243 243 243 245 249 252 255 260 264 265 267 275 282 288 292 291 291 297 302 304 303 304 307 306 307 310 311 312 313 315 319 320 321 323 323 322 322 322 323 325 326 329 334 335 333 332 332 333 332 333 336 343 351 354 355 356 356 358 359 355 354 355 354 353 349 347 347 347 346 345 344 342 339 336 334 331
230 234 235 236 239 243 244 242 242 242 242 241 242 246 250 255 259 260 259 264 272 278 283 288 286 287 295 300 302 299 296 298 298 301 307 308 311 315 318 321 322 323 324 323 322 323 323 324 327 330 333 336 337 336 335 335 335 335 337 341 347 353 355 357 356 356 359 357 352 352 352 349 347 344 341 340 338 338 337 336 334 331 328 326 324
231 237 238 237 240 244 245 244 242 241 240 239 239 243 248 252 255 253 255 262 267 270 277 281 279 282 292 298 297 293 290 291 291 297 304 308 314 319 323 325 325 327 328 324 322 322 322 322 326 330 333 338 341 340 338 337 338 338 339 343 348 353 355 358 358 356 358 355 347 345 343 340 337 336 334 333 332 332 332 330 328 325 323 321 320
232 238 239 239 241 244 245 244 243 242 240 239 238 240 243 247 249 248 252 259 259 263 272 273 273 279 289 293 292 287 283 284 287 294 303 310 319 325 329 329 329 330 331 327 323 322 321 322 327 329 333 342 345 343 340 338 338 339 341 346 350 353 355 357 356 352 350 347 340 336 334 333 332 333 333 333 333 332 330 327 324 321 320 319 319
233 237 239 239 240 242 243 243 242 240 238 237 237 237 239 242 243 243 248 254 253 258 265 265 267 274 284 288 286 282 277 279 287 294 304 314 323 330 332 332 333 333 332 330 326 324 323 324 327 329 335 345 347 343 338 336 339 339 342 348 350 351 351 348 345 343 341 338 335 332 332 332 334 335 337 336 334 331 327 324 322 321 321 322 324
233 236 237 238 239 241 243 244 244 242 239 237 237 237 238 241 241 241 243 246 248 253 258 259 261 267 275 280 281 277 272 275 285 295 305 315 325 333 333 333 336 335 334 333 329 326 323 325 328 329 337 346 345 341 336 335 338 338 341 344 344 343 341 338 336 336 336 336 335 334 334 335 337 337 336 335 334 333 333 333 333 335 337 339 340
235 237 240 241 241 242 244 247 248 246 242 240 240 240 240 241 240 239 240 241 243 248 251 252 256 260 264 270 274 270 267 270 282 295 306 316 328 335 334 335 338 337 336 335 330 326 322 323 324 326 336 344 341 336 333 333 334 335 337 338 337 336 334 332 332 334 336 338 338 338 337 338 338 336 334 335 337 339 341 342 345 347 348 348 347
239 243 248 249 248 247 246 249 250 248 245 242 243 243 242 243 241 240 239 238 237 241 243 244 248 253 256 259 264 262 260 266 277 291 304 318 332 337 335 338 339 336 336 336 333 327 322 321 321 323 332 336 334 331 330 330 331 332 334 333 332 330 328 328 331 336 340 342 341 340 339 339 337 335 335 337 340 342 344 346 348 348 347 346 345
241 246 251 254 254 253 251 251 251 250 246 244 243 244 244 244 243 242 240 236 234 233 231 236 242 246 249 251 254 252 252 260 272 286 301 319 333 338 337 339 339 334 334 337 335 329 324 324 323 323 327 326 327 329 329 329 329 330 329 328 327 325 325 327 333 341 344 343 341 340 341 341 339 337 337 339 342 345 347 348 347 346 345 344 343
239 244 250 255 258 257 254 251 250 249 247 244 244 245 245 245 245 247 247 245 250 243 226 226 239 241 242 245 246 245 247 255 268 285 301 317 331 337 338 340 339 334 333 335 334 329 325 323 322 320 319 318 323 329 329 328 328 328 326 324 324 323 324 331 339 343 343 342 341 341 343 343 341 339 338 340 343 347 348 347 346 344 344 343 342
239 244 249 256 260 261 257 251 249 249 248 246 244 244 245 247 249 251 252 254 262 258 236 227 238 241 239 239 240 240 243 252 264 282 298 313 328 334 336 339 337 334 333 333 331 329 322 316 315 314 312 312 320 327 328 328 328 326 324 322 322 323 329 336 341 343 343 343 343 342 343 341 339 338 339 342 346 348 347 345 343 342 341 341 340
241 244 247 254 259 260 259 254 251 249 248 248 246 243 244 247 249 250 252 255 260 259 245 237 244 245 241 236 235 236 238 245 257 275 291 307 323 332 335 336 336 334 334 332 329 326 317 309 307 308 307 310 319 326 327 328 328 326 322 320 322 328 334 339 342 344 343 344 343 341 340 339 338 338 340 344 347 345 342 339 338 337 337 338 339
243 244 244 248 252 255 257 257 253 247 244 246 246 244 243 242 242 245 251 257 260 257 248 244 247 247 242 235 233 234 235 239 248 265 284 300 317 329 332 333 334 333 331 330 325 320 311 304 303 304 305 311 321 327 329 329 329 327 321 319 326 335 339 342 344 345 344 343 341 339 338 337 337 338 341 344 342 338 333 333 334 334 336 337 338
245 247 248 252 255 257 258 260 257 249 241 240 242 244 245 242 239 242 248 256 260 258 249 242 242 243 241 235 232 234 235 237 245 261 279 294 310 323 327 330 331 329 327 326 319 313 307 302 302 301 302 313 326 330 331 330 329 327 323 323 333 342 342 344 346 345 343 341 338 336 335 335 335 336 338 338 333 328 327 330 333 334 335 337 339
248 252 256 262 264 264 265 263 260 254 247 241 239 241 246 246 243 241 244 254 262 258 244 234 235 238 238 233 231 234 236 238 246 259 274 287 301 314 320 326 327 324 323 321 315 308 305 303 301 301 307 319 330 332 332 330 328 327 325 327 337 343 343 344 345 343 340 338 336 334 334 333 333 333 332 330 326 324 327 330 332 333 334 337 340
252 257 263 268 269 268 266 263 260 257 254 248 240 240 245 249 246 243 243 250 258 254 238 230 234 238 236 231 230 234 236 238 247 258 270 281 294 306 314 320 322 321 320 317 313 308 304 303 301 302 312 323 331 332 331 330 327 327 327 329 335 342 342 342 341 339 337 336 334 333 332 331 329 328 327 325 324 324 327 329 330 332 335 339 341
255 261 267 269 270 269 266 265 262 258 257 252 243 239 242 245 244 243 242 244 251 250 238 231 236 239 234 231 231 234 236 239 245 254 265 277 290 301 308 314 315 316 318 315 313 310 305 303 302 304 313 324 331 332 330 329 326 327 329 329 333 339 340 337 336 336 335 334 333 330 329 328 328 328 325 322 322 323 325 328 330 334 337 340 341
255 261 269 274 275 272 269 267 263 258 259 259 255 248 245 246 244 240 240 240 243 245 236 231 237 242 236 231 232 235 238 240 245 252 260 272 285 295 302 308 310 312 316 314 312 311 307 303 302 306 315 325 331 331 331 329 326 328 331 330 331 335 336 334 333 333 333 332 330 329 328 328 328 327 323 320 321 324 326 329 332 335 338 340 339
255 260 273 280 277 275 273 272 271 268 264 265 267 267 262 258 249 238 235 236 234 234 233 230 235 243 242 235 233 236 240 243 246 251 256 264 276 287 295 302 306 308 311 311 309 308 306 303 303 306 315 325 330 331 331 328 326 327 330 330 330 331 332 332 331 329 329 330 329 327 327 328 327 323 320 319 322 326 328 330 332 334 336 337 335
257 262 275 277 275 277 276 277 282 283 274 268 269 269 268 266 256 244 240 236 229 226 229 229 231 240 244 237 233 237 242 245 247 250 254 260 268 279 290 296 300 304 305 305 306 306 304 302 302 304 312 323 328 329 329 327 325 325 328 329 327 327 328 328 326 324 324 327 327 325 325 326 324 321 320 321 324 327 328 330 331 332 333 333 332
264 267 272 272 276 280 278 278 282 283 277 271 267 266 265 261 254 251 251 248 239 227 225 228 231 238 241 236 232 237 242 246 249 250 252 257 263 273 283 290 294 297 299 301 302 304 302 299 300 302 308 320 326 327 327 325 323 323 325 326 323 322 323 323 322 321 322 324 325 323 324 324 322 320 320 322 324 327 328 329 329 329 330 330 330
275 276 273 277 281 282 282 280 281 282 280 274 268 267 266 259 251 249 251 254 250 236 229 230 234 238 239 233 231 235 240 245 248 249 250 254 259 267 274 280 286 291 295 298 300 301 301 299 299 301 307 316 321 323 324 321 320 322 323 321 319 318 319 320 319 319 321 322 323 323 323 323 321 320 321 323 324 326 327 327 326 327 328 328 328
276 277 275 280 284 283 282 281 282 285 283 278 272 268 267 261 252 247 248 251 249 240 234 232 235 240 240 233 230 232 237 242 245 247 249 251 255 261 267 271 278 285 291 295 298 299 300 299 300 302 306 311 316 319 320 320 322 323 321 318 316 316 318 319 318 319 321 322 323 324 324 322 322 321 322 323 324 326 325 325 325 326 327 327 327
272 274 275 280 285 287 284 281 281 282 280 279 275 271 270 262 251 246 248 249 245 238 233 229 231 239 243 237 232 232 235 238 242 247 249 251 253 257 263 269 274 282 287 290 293 295 298 299 300 301 304 307 310 313 316 319 322 321 319 315 314 316 317 318 318 319 320 322 324 324 324 323 322 322 323 324 325 324 324 324 325 325 325 326 326
276 275 278 281 285 287 284 280 277 276 276 276 274 273 270 263 256 250 247 249 247 237 229 222 222 234 243 241 236 234 234 237 242 246 248 250 254 257 261 268 273 279 283 285 288 292 295 297 298 299 301 302 304 307 312 317 319 319 317 315 314 316 318 318 318 319 320 322 324 324 323 323 323 324 325 325 325 324 324 324 324 324 324 325 326
281 280 282 282 283 282 280 279 279 282 282 277 271 268 266 263 260 253 249 250 243 230 222 215 214 227 239 242 239 234 234 238 241 244 245 248 255 259 262 266 269 274 278 282 286 288 291 294 295 296 297 298 299 303 308 313 315 316 316 315 315 317 317 317 317 319 320 321 322 323 323 323 324 325 325 325 325 324 324 324 323 323 323 324 326
280 280 282 285 285 282 280 279 283 290 291 282 272 266 264 263 258 253 252 246 236 229 224 214 209 220 232 236 235 231 232 237 240 241 245 249 253 257 260 263 266 270 274 279 283 285 288 290 292 293 294 294 296 299 304 308 312 314 314 314 315 315 315 315 315 317 318 319 321 321 321 323 324 324 325 325 325 324 322 322 322 322 323 324 326
278 281 284 286 287 286 286 287 289 293 294 288 280 271 264 259 258 258 252 243 240 241 232 213 205 209 217 223 228 230 232 236 240 242 244 248 251 254 257 260 264 269 274 279 281 283 286 288 291 292 292 292 293 296 299 303 307 310 311 312 314 313 312 313 314 315 316 317 320 320 319 321 323 323 323 323 322 321 320 320 321 322 324 325 326
275 280 281 280 284 288 289 289 291 293 294 291 286 278 264 258 262 262 250 244 245 241 225 209 204 205 211 222 229 232 233 234 240 242 242 245 249 253 256 259 264 269 273 278 281 283 285 287 289 290 290 290 291 292 294 297 302 305 308 310 310 310 310 311 312 313 314 315 318 317 317 319 321 320 320 320 319 318 318 320 321 323 325 325 326
271 276 275 276 281 285 283 283 288 292 291 289 286 278 268 265 261 252 248 245 233 216 207 205 208 209 214 224 229 232 232 235 241 242 242 246 251 255 259 261 264 269 273 278 281 282 284 286 287 288 289 288 288 288 290 293 297 300 303 306 307 308 309 310 310 310 311 313 314 315 316 317 319 319 318 318 317 317 319 321 322 324 325 325 324
268 271 273 274 275 274 274 280 290 292 284 282 286 276 267 269 251 235 239 237 214 205 201 202 209 213 216 220 225 230 233 239 243 243 243 248 254 259 262 264 266 271 275 278 280 282 283 285 285 286 287 286 286 286 287 290 293 296 300 303 305 306 307 308 309 309 311 312 313 315 315 316 317 317 316 316 317 318 320 322 323 324 324 324 323
262 265 265 264 261 261 269 281 291 288 274 274 292 280 250 261 253 237 239 237 219 205 189 183 194 201 206 214 222 228 235 240 243 243 246 252 257 261 264 267 271 275 277 279 280 282 282 283 284 285 286 286 286 286 287 288 290 294 297 301 303 305 306 307 309 310 311 312 313 314 314 314 315 315 315 315 317 319 321 322 323 324 323 323 323
261 262 258 252 249 251 261 275 283 281 270 268 284 281 245 260 270 255 243 235 215 192 177 180 192 195 201 216 225 233 240 244 245 247 252 257 261 264 265 269 274 278 280 281 281 282 282 283 284 285 286 286 286 287 288 289 291 294 297 300 302 303 305 307 309 309 310 310 311 312 312 312 313 314 314 315 317 320 321 322 323 323 323 323 324
260 259 253 246 245 246 253 263 268 265 263 261 263 273 283 290 283 251 232 216 197 185 184 197 207 208 216 233 244 247 247 248 249 251 255 259 263 265 268 272 277 281 282 282 282 282 282 283 284 285 286 286 287 288 289 291 293 295 296 297 299 301 303 305 307 308 309 310 310 310 309 310 312 313 314 316 317 319 321 322 322 322 322 323 323
258 255 249 243 240 242 248 253 256 253 250 256 262 267 285 307 277 214 218 208 197 193 197 206 215 224 238 257 273 268 257 253 253 254 257 262 265 268 271 275 279 282 282 281 281 281 281 282 283 284 285 285 287 289 290 291 291 291 292 293 295 298 301 303 306 307 309 309 308 307 308 310 312 313 314 315 317 319 320 320 321 321 321 322 321
252 246 240 237 235 237 243 244 246 251 250 257 267 260 260 282 255 203 213 213 209 209 207 207 217 235 248 265 278 278 269 262 260 261 264 267 270 272 275 278 280 282 281 280 280 280 281 281 281 282 283 284 286 287 288 289 289 289 290 292 293 296 299 302 304 305 306 305 305 306 308 312 313 313 314 314 316 318 320 320 320 319 319 318 318
242 235 232 234 235 237 242 242 245 255 256 255 260 245 237 250 250 230 229 231 232 226 217 214 226 242 251 261 270 274 276 271 266 266 267 268 271 274 276 278 279 280 280 279 279 280 280 281 281 281 283 285 286 287 287 288 289 290 291 292 293 295 298 301 302 304 304 305 306 308 310 312 312 312 311 312 314 317 317 317 316 316 317 316 315
233 228 228 233 236 237 242 247 251 258 257 256 259 253 243 233 226 234 241 243 244 237 225 225 235 245 251 257 263 269 274 273 270 269 267 267 270 272 274 276 277 277 277 277 278 279 279 280 281 281 283 284 285 286 287 288 288 289 290 291 294 297 299 302 304 306 307 307 309 310 311 311 309 308 308 310 313 315 314 313 313 313 313 313 312
227 225 226 227 231 236 241 247 254 258 256 254 253 249 245 237 230 235 244 247 248 244 233 231 236 244 250 255 260 265 270 273 273 271 268 266 267 269 270 271 272 272 273 274 275 276 276 277 280 281 282 282 282 283 285 286 287 288 290 293 297 300 302 304 307 308 308 309 310 310 309 309 307 306 306 306 307 309 309 309 309 308 307 307 307
Height
3178 3178 3179 3180 3181 3181 3181 3182 3182 3183 3183 3183 3183 3183 3183 3183 3183 3183 3183 3183 3182 3182 3182 3182 3181 3181 3180 3180 3179 3179 3178 3178 3178 3177 3177 3176 3175 3175 3174 3173 3172 3171 3170 3170 3169 3168 3167 3166 3166 3165 3164 3163 3162 3161 3161 3160 3159 3158 3157 3156 3156 3155 3154 3153 3152 3152 3151 3150 3149 3148 3148 3147 3147 3146 3146 3146 3145 3144 3144 3144 3144 3143 3143 3142 3142
3177 3177 3178 3179 3179 3180 3180 3181 3181 3182 3182 3182 3182 3182 3182 3183 3183 3182 3182 3182 3182 3182 3182 3181 3180 3180 3179 3179 3178 3178 3178 3177 3177 3176 3176 3175 3174 3174 3173 3172 3171 3171 3169 3169 3167 3166 3165 3164 3164 3164 3163 3162 3161 3160 3159 3158 3158 3157 3156 3155 3154 3153 3153 3152 3151 3150 3149 3148 3148 3147 3147 3146 3145 3145 3144 3144 3143 3143 3143 3142 3142 3142 3141 3141 3140
3176 3176 3177 3178 3178 3179 3179 3180 3180 3181 3181 3181 3181 3181 3181 3182 3182 3182 3182 3181 3181 3181 3181 3180 3180 3179 3179 3178 3178 3177 3177 3176 3175 3175 3174 3174 3173 3173 3172 3171 3171 3170 3168 3167 3166 3165 3164 3163 3163 3162 3161 3160 3160 3159 3157 3157 3156 3155 3154 3154 3153 3152 3151 3150 3149 3149 3148 3147 3146 3146 3145 3144 3144 3143 3143 3142 3142 3141 3141 3141 3140 3140 3140 3139 3139
3174 3175 3176 3176 3177 3177 3178 3178 3179 3179 3179 3179 3180 3180 3180 3181 3181 3181 3181 3181 3180 3180 3180 3179 3179 3178 3178 3178 3177 3177 3176 3175 3174 3174 3173 3173 3172 3171 3170 3170 3169 3168 3167 3165 3164 3164 3163 3162 3162 3160 3159 3159 3158 3157 3156 3155 3154 3154 3153 3152 3152 3151 3150 3149 3148 3147 3147 3146 3145 3144 3144 3143 3142 3142 3141 3141 3140 3140 3139 3139 3139 3138 3138 3138 3138
3173 3173 3174 3174 3175 3176 3176 3177 3177 3178 3178 3178 3178 3179 3179 3180 3180 3180 3180 3180 3179 3179 3179 3178 3178 3177 3177 3177 3176 3176 3175 3174 3173 3172 3171 3171 3170 3169 3169 3168 3167 3167 3166 3164 3163 3163 3162 3161 3160 3159 3158 3158 3157 3156 3155 3154 3153 3153 3152 3151 3150 3149 3148 3148 3147 3146 3146 3145 3144 3143 3143 3142 3141 3141 3140 3140 3139 3138 3138 3137 3137 3137 3136 3136 3136
3171 3172 3172 3173 3173 3174 3175 3175 3176 3176 3176 3177 3177 3177 3178 3178 3178 3178 3178 3178 3178 3178 3178 3177 3177 3177 3176 3175 3175 3174 3173 3171 3171 3170 3169 3169 3168 3168 3167 3166 3166 3165 3164 3163 3163 3162 3161 3160 3159 3158 3157 3157 3156 3155 3154 3153 3152 3151 3151 3150 3149 3148 3147 3147 3146 3145 3145 3144 3143 3143 3142 3141 3140 3140 3139 3138 3138 3137 3136 3136 3135 3135 3135 3135 3135
3170 3170 3170 3171 3172 3172 3173 3174 3174 3175 3175 3175 3176 3176 3177 3177 3177 3177 3177 3177 3177 3177 3177 3176 3176 3175 3175 3174 3173 3172 3171 3170 3170 3169 3169 3168 3167 3167 3166 3165 3164 3163 3163 3162 3162 3161 3160 3159 3157 3157 3156 3155 3155 3154 3153 3152 3151 3150 3150 3149 3148 3147 3146 3146 3145 3145 3144 3144 3143 3142 3141 3140 3140 3139 3138 3137 3137 3136 3135 3135 3134 3134 3133 3133 3133
3168 3168 3169 3169 3170 3171 3172 3172 3173 3173 3174 3174 3175 3175 3175 3175 3175 3175 3176 3176 3176 3176 3176 3175 3175 3174 3173 3173 3172 3171 3170 3169 3169 3169 3168 3167 3166 3165 3165 3164 3163 3162 3162 3161 3161 3160 3159 3158 3156 3155 3155 3154 3154 3153 3152 3151 3150 3149 3148 3148 3147 3146 3146 3145 3144 3144 3144 3143 3142 3141 3141 3140 3139 3138 3137 3137 3136 3135 3134 3134 3133 3132 3132 3132 3132
3166 3166 3167 3167 3168 3169 3170 3170 3171 3172 3172 3173 3173 3174 3174 3174 3174 3174 3175 3175 3175 3175 3175 3174 3174 3173 3172 3172 3171 3170 3169 3169 3168 3168 3167 3166 3165 3164 3164 3163 3162 3161 3161 3160 3159 3158 3157 3156 3155 3154 3154 3153 3152 3152 3152 3150 3149 3148 3147 3146 3146 3145 3145 3145 3144 3143 3143 3142 3142 3141 3140 3139 3138 3137 3136 3136 3135 3134 3134 3133 3132 3132 3131 3131 3130
3164 3164 3165 3166 3166 3167 3167 3168 3169 3169 3170 3171 3172 3172 3172 3173 3173 3173 3173 3174 3174 3174 3173 3173 3172 3172 3171 3171 3170 3169 3168 3168 3168 3167 3166 3165 3164 3163 3162 3162 3161 3161 3160 3159 3158 3157 3156 3155 3155 3154 3153 3152 3152 3151 3151 3150 3149 3148 3147 3145 3144 3144 3144 3144 3143 3142 3142 3142 3141 3140 3139 3138 3137 3136 3135 3135 3135 3134 3133 3132 3132 3131 3130 3130 3129
3162 3162 3163 3164 3164 3165 3165 3166 3166 3167 3168 3169 3170 3171 3171 3171 3172 3172 3172 3172 3172 3172 3172 3172 3171 3171 3170 3169 3169 3168 3167 3167 3167 3166 3165 3164 3163 3162 3161 3161 3160 3160 3159 3158 3157 3156 3155 3155 3154 3153 3152 3152 3151 3150 3149 3149 3148 3147 3146 3145 3144 3143 3143 3143 3142 3141 3141 3141 3140 3139 3138 3138 3136 3135 3135 3134 3134 3133 3132 3132 3131 3130 3130 3129 3128
3159 3160 3161 3162 3163 3163 3163 3163 3164 3165 3167 3168 3169 3169 3170 3170 3170 3170 3171 3171 3171 3171 3171 3170 3170 3169 3169 3168 3167 3167 3166 3166 3166 3165 3164 3163 3162 3161 3160 3160 3160 3159 3157 3156 3156 3155 3155 3154 3153 3152 3151 3151 3150 3149 3148 3148 3147 3147 3145 3144 3143 3142 3142 3141 3141 3141 3140 3140 3139 3138 3138 3137 3136 3135 3134 3133 3133 3132 3131 3130 3130 3129 3128 3128 3127
3157 3158 3159 3160 3160 3161 3161 3161 3162 3164 3165 3167 3167 3168 3168 3168 3168 3169 3169 3169 3169 3169 3169 3169 3168 3168 3167 3167 3166 3166 3165 3165 3165 3164 3164 3162 3161 3160 3160 3159 3159 3158 3156 3156 3155 3154 3154 3153 3152 3151 3150 3150 3149 3148 3147 3147 3146 3146 3145 3143 3142 3141 3141 3140 3140 3140 3139 3138 3138 3137 3137 3136 3136 3135 3134 3133 3132 3131 3130 3129 3129 3128 3127 3126 3126
3156 3156 3157 3157 3158 3158 3159 3159 3160 3162 3164 3165 3165 3165 3166 3166 3167 3167 3168 3168 3168 3168 3167 3167 3167 3166 3166 3165 3165 3165 3165 3164 3164 3163 3163 3161 3161 3160 3159 3159 3158 3157 3156 3155 3154 3153 3152 3152 3151 3151 3150 3149 3148 3147 3147 3146 3146 3145 3144 3143 3142 3141 3140 3140 3139 3139 3138 3138 3137 3137 3136 3136 3135 3134 3133 3132 3131 3130 3129 3128 3128 3127 3126 3125 3124
3154 3154 3154 3155 3156 3156 3157 3158 3159 3160 3161 3162 3162 3163 3163 3164 3165 3165 3165 3166 3166 3166 3165 3165 3165 3165 3164 3164 3164 3164 3164 3163 3163 3162 3162 3161 3160 3160 3159 3157 3157 3156 3155 3154 3154 3153 3152 3151 3150 3150 3149 3148 3147 3147 3146 3146 3145 3145 3144 3143 3141 3140 3139 3139 3139 3138 3138 3137 3136 3136 3136 3135 3135 3134 3133 3132 3131 3129 3128 3127 3126 3126 3125 3124 3123
3152 3151 3152 3153 3154 3155 3155 3156 3157 3158 3159 3159 3160 3160 3161 3161 3162 3163 3163 3163 3164 3163 3163 3163 3163 3163 3162 3162 3162 3162 3163 3162 3162 3161 3161 3160 3160 3159 3158 3157 3156 3155 3154 3154 3153 3152 3151 3150 3150 3149 3148 3147 3147 3146 3146 3146 3145 3144 3143 3142 3141 3140 3139 3138 3138 3137 3137 3137 3136 3135 3135 3134 3133 3133 3132 3131 3130 3129 3128 3127 3126 3125 3124 3123 3122
3149 3149 3150 3151 3152 3152 3153 3153 3154 3155 3156 3156 3157 3158 3158 3159 3159 3160 3161 3161 3161 3161 3161 3161 3161 3161 3161 3161 3161 3161 3161 3161 3161 3160 3160 3160 3159 3158 3157 3156 3155 3154 3153 3153 3152 3151 3151 3150 3149 3148 3147 3146 3146 3146 3146 3145 3145 3144 3143 3142 3141 3140 3139 3138 3137 3136 3136 3135 3135 3134 3133 3133 3132 3131 3130 3129 3129 3128 3127 3126 3125 3124 3123 3122 3121
3148 3148 3149 3150 3150 3150 3150 3151 3151 3152 3153 3154 3154 3155 3156 3156 3157 3158 3158 3159 3159 3159 3159 3159 3159 3159 3159 3159 3160 3160 3160 3160 3160 3160 3159 3159 3158 3157 3156 3155 3155 3154 3153 3152 3152 3151 3150 3149 3148 3148 3147 3146 3146 3146 3145 3145 3144 3143 3143 3142 3141 3139 3138 3137 3136 3135 3134 3134 3134 3133 3132 3132 3131 3130 3129 3128 3127 3126 3125 3124 3124 3123 3122 3121 3119
3146 3147 3147 3148 3148 3148 3148 3149 3149 3150 3151 3152 3152 3153 3154 3154 3155 3155 3156 3156 3157 3157 3157 3157 3158 3158 3157 3158 3158 3159 3159 3159 3159 3159 3158 3158 3157 3156 3155 3155 3154 3153 3152 3152 3151 3150 3150 3149 3148 3147 3146 3146 3145 3145 3145 3144 3144 3143 3142 3141 3140 3139 3137 3136 3135 3134 3133 3133 3133 3132 3131 3131 3130 3129 3128 3127 3126 3125 3124 3123 3122 3121 3120 3119 3118
3145 3145 3145 3145 3146 3146 3146 3146 3147 3147 3148 3150 3151 3151 3152 3152 3153 3153 3154 3154 3154 3154 3154 3155 3155 3156 3156 3156 3157 3158 3158 3158 3158 3158 3158 3157 3156 3155 3154 3154 3153 3152 3152 3151 3151 3150 3149 3148 3147 3146 3146 3145 3145 3145 3144 3144 3143 3142 3141 3140 3139 3138 3137 3135 3134 3133 3132 3132 3131 3131 3130 3129 3129 3128 3127 3126 3125 3124 3123 3121 3120 3119 3118 3117 3116
3143 3143 3143 3143 3143 3144 3144 3145 3145 3145 3146 3147 3148 3149 3150 3151 3151 3151 3151 3151 3150 3150 3151 3153 3154 3154 3154 3155 3155 3156 3157 3157 3157 3157 3157 3156 3156 3155 3153 3153 3152 3151 3151 3150 3150 3149 3148 3147 3147 3146 3145 3145 3145 3144 3143 3143 3142 3141 3140 3140 3138 3137 3136 3135 3133 3132 3131 3131 3130 3130 3129 3128 3127 3127 3126 3125 3124 3122 3121 3120 3119 3118 3116 3115 3114
3142 3142 3142 3141 3141 3142 3142 3143 3143 3143 3144 3145 3146 3147 3148 3149 3149 3149 3150 3151 3151 3149 3148 3150 3152 3152 3153 3153 3154 3155 3155 3156 3155 3155 3155 3155 3155 3154 3153 3152 3151 3151 3150 3150 3149 3148 3148 3147 3146 3146 3145 3145 3144 3143 3143 3142 3141 3140 3140 3139 3138 3136 3135 3134 3132 3131 3130 3130 3129 3128 3128 3127 3126 3126 3125 3124 3122 3121 3119 3118 3117 3116 3115 3113 3112
3140 3140 3140 3140 3140 3140 3140 3140 3141 3141 3142 3143 3144 3144 3145 3146 3148 3149 3150 3151 3152 3150 3147 3148 3150 3151 3151 3152 3152 3153 3154 3154 3154 3154 3154 3154 3153 3153 3151 3151 3150 3150 3149 3149 3148 3148 3147 3146 3146 3145 3145 3144 3143 3142 3142 3141 3140 3139 3138 3138 3137 3135 3134 3133 3132 3130 3129 3128 3128 3127 3127 3126 3125 3125 3123 3122 3121 3119 3118 3117 3116 3114 3113 3112 3111
3138 3138 3138 3138 3138 3138 3138 3138 3138 3139 3140 3141 3142 3142 3143 3145 3146 3148 3149 3150 3150 3149 3147 3147 3148 3149 3149 3150 3150 3151 3152 3153 3153 3152 3152 3152 3152 3151 3150 3150 3149 3149 3149 3148 3148 3147 3147 3146 3145 3145 3145 3144 3143 3142 3141 3140 3139 3138 3137 3136 3136 3134 3133 3132 3130 3129 3128 3127 3127 3126 3126 3125 3124 3123 3122 3120 3119 3118 3117 3116 3114 3113 3112 3110 3109
3136 3136 3136 3136 3135 3135 3135 3135 3136 3137 3137 3138 3139 3140 3142 3143 3143 3145 3147 3148 3148 3148 3146 3146 3147 3147 3148 3148 3149 3150 3151 3151 3151 3151 3151 3151 3150 3150 3149 3149 3148 3148 3148 3147 3147 3146 3146 3145 3145 3144 3144 3143 3142 3141 3140 3139 3138 3137 3136 3135 3135 3133 3132 3131 3129 3128 3127 3126 3126 3125 3124 3124 3123 3122 3120 3119 3118 3117 3116 3114 3113 3112 3110 3109 3107
3134 3134 3133 3133 3133 3133 3133 3133 3134 3134 3134 3135 3136 3137 3138 3140 3140 3141 3144 3145 3146 3146 3145 3144 3145 3146 3146 3147 3147 3148 3149 3149 3150 3150 3149 3149 3149 3149 3148 3148 3147 3147 3147 3147 3146 3146 3145 3145 3144 3144 3143 3143 3141 3140 3139 3138 3137 3136 3135 3134 3133 3132 3131 3129 3128 3127 3126 3126 3125 3124 3123 3122 3122 3121 3119 3118 3117 3116 3115 3113 3112 3110 3109 3107 3105
3131 3131 3131 3131 3131 3131 3131 3131 3131 3131 3131 3132 3133 3133 3134 3138 3139 3139 3141 3143 3144 3144 3144 3143 3144 3144 3145 3145 3146 3146 3147 3148 3148 3148 3148 3148 3148 3148 3147 3147 3146 3146 3146 3146 3145 3145 3144 3144 3143 3143 3142 3141 3140 3139 3138 3137 3136 3135 3134 3132 3132 3130 3129 3128 3127 3126 3125 3125 3124 3123 3123 3122 3121 3119 3118 3117 3116 3115 3113 3111 3110 3108 3107 3105 3103
3129 3129 3130 3129 3129 3129 3128 3128 3128 3128 3128 3129 3130 3130 3131 3134 3137 3137 3138 3140 3141 3142 3142 3142 3142 3143 3143 3144 3144 3145 3146 3146 3147 3147 3147 3146 3146 3146 3146 3146 3145 3145 3145 3145 3144 3144 3143 3143 3142 3142 3141 3140 3139 3138 3137 3136 3135 3134 3133 3131 3130 3129 3128 3127 3126 3125 3124 3124 3123 3122 3121 3120 3120 3119 3117 3116 3115 3113 3111 3110 3108 3106 3105 3103 3101
3128 3128 3129 3128 3128 3127 3126 3125 3124 3125 3125 3125 3126 3128 3130 3131 3133 3135 3136 3138 3139 3140 3140 3141 3141 3142 3142 3142 3143 3143 3144 3145 3145 3145 3145 3145 3144 3145 3145 3145 3144 3144 3144 3143 3143 3143 3142 3142 3141 3140 3140 3139 3138 3136 3135 3134 3134 3133 3132 3130 3129 3128 3127 3126 3125 3124 3123 3122 3122 3121 3120 3119 3118 3117 3116 3115 3113 3112 3110 3108 3106 3104 3102 3100 3099
3126 3127 3128 3127 3126 3125 3123 3121 3120 3123 3124 3122 3121 3125 3128 3130 3131 3132 3133 3135 3136 3137 3138 3139 3140 3140 3140 3141 3141 3142 3143 3143 3144 3144 3143 3143 3143 3143 3143 3143 3143 3143 3142 3142 3142 3141 3141 3140 3140 3139 3138 3137 3136 3135 3134 3133 3132 3132 3131 3129 3128 3127 3126 3125 3124 3123 3122 3121 3120 3119 3118 3117 3116 3116 3114 3113 3112 3110 3108 3106 3104 3102 3100 3099 3097
3124 3126 3127 3126 3123 3122 3121 3119 3118 3123 3126 3122 3120 3123 3126 3128 3129 3130 3131 3131 3132 3133 3135 3137 3138 3138 3139 3139 3140 3141 3141 3142 3142 3142 3142 3142 3142 3142 3142 3142 3142 3142 3141 3141 3140 3140 3140 3139 3138 3137 3137 3136 3135 3134 3133 3132 3131 3130 3129 3128 3127 3126 3125 3124 3123 3122 3121 3120 3119 3118 3117 3116 3115 3114 3113 3111 3110 3108 3106 3104 3102 3100 3099 3097 3096
3123 3125 3126 3124 3121 3120 3120 3119 3118 3122 3125 3123 3120 3121 3123 3124 3126 3127 3127 3128 3128 3130 3132 3134 3135 3136 3136 3137 3138 3139 3140 3140 3140 3140 3140 3140 3140 3140 3140 3140 3140 3140 3140 3140 3139 3139 3138 3137 3137 3136 3136 3135 3134 3133 3132 3131 3130 3129 3128 3127 3126 3125 3123 3123 3122 3121 3120 3119 3118 3116 3115 3115 3114 3113 3111 3110 3108 3107 3105 3103 3101 3099 3097 3096 3094
3123 3125 3123 3121 3120 3119 3118 3118 3117 3118 3121 3121 3120 3120 3120 3121 3122 3123 3124 3126 3127 3127 3129 3131 3132 3133 3134 3135 3136 3137 3138 3138 3139 3139 3139 3138 3138 3138 3138 3138 3139 3139 3139 3139 3138 3137 3137 3136 3135 3135 3134 3134 3133 3132 3131 3130 3129 3128 3127 3126 3125 3124 3123 3122 3121 3120 3119 3118 3117 3115 3114 3114 3113 3111 3110 3108 3107 3105 3103 3101 3099 3098 3096 3094 3093
3122 3122 3120 3119 3118 3117 3117 3117 3116 3115 3117 3118 3118 3118 3118 3118 3119 3120 3121 3123 3125 3126 3127 3128 3130 3131 3132 3133 3134 3135 3136 3136 3137 3137 3137 3137 3137 3137 3137 3137 3137 3137 3137 3137 3136 3136 3135 3134 3133 3133 3133 3133 3132 3131 3130 3129 3128 3127 3126 3125 3124 3123 3122 3121 3120 3119 3118 3117 3115 3114 3113 3112 3111 3110 3108 3107 3105 3103 3102 3100 3098 3096 3094 3093 3091
3122 3120 3118 3117 3116 3115 3115 3114 3114 3114 3114 3114 3115 3114 3115 3115 3116 3117 3118 3120 3122 3124 3125 3126 3128 3129 3129 3130 3131 3132 3133 3134 3135 3135 3136 3136 3135 3135 3135 3135 3136 3136 3135 3135 3134 3134 3133 3132 3131 3131 3131 3131 3130 3130 3129 3128 3127 3126 3125 3124 3123 3121 3120 3119 3118 3117 3116 3115 3114 3112 3111 3110 3109 3108 3106 3105 3103 3102 3100 3098 3096 3094 3092 3091 3089
3119 3117 3115 3115 3114 3114 3113 3112 3112 3111 3110 3111 3111 3111 3112 3112 3114 3115 3116 3117 3119 3120 3122 3124 3125 3126 3127 3127 3128 3129 3130 3132 3133 3133 3134 3134 3134 3134 3134 3134 3134 3134 3134 3133 3133 3132 3131 3130 3130 3129 3129 3129 3129 3128 3128 3127 3125 3124 3124 3123 3121 3120 3119 3118 3116 3115 3114 3113 3112 3110 3109 3109 3107 3106 3105 3103 3101 3100 3098 3096 3094 3092 3090 3089 3087
3115 3114 3113 3113 3112 3111 3110 3109 3108 3107 3108 3108 3108 3108 3109 3109 3111 3113 3114 3115 3116 3116 3118 3120 3123 3124 3125 3125 3126 3127 3129 3130 3131 3131 3132 3132 3132 3132 3132 3132 3132 3132 3132 3131 3131 3130 3129 3128 3128 3127 3127 3127 3127 3127 3126 3125 3124 3123 3122 3121 3119 3118 3117 3116 3115 3114 3112 3111 3110 3109 3107 3106 3105 3104 3102 3101 3099 3098 3096 3094 3092 3090 3089 3087 3085
3110 3111 3111 3110 3109 3108 3108 3107 3104 3103 3104 3105 3105 3105 3105 3105 3107 3109 3110 3112 3112 3112 3113 3117 3120 3121 3122 3123 3125 3126 3127 3128 3129 3129 3129 3130 3130 3130 3130 3130 3130 3130 3130 3130 3129 3128 3127 3127 3126 3125 3125 3125 3125 3124 3124 3123 3122 3121 3120 3119 3118 3117 3116 3114 3113 3112 3111 3109 3108 3107 3106 3104 3103 3101 3100 3099 3097 3095 3093 3092 3090 3088 3086 3085 3083
3107 3108 3108 3107 3106 3105 3105 3104 3103 3102 3101 3101 3102 3102 3103 3103 3104 3105 3107 3108 3109 3108 3110 3114 3117 3119 3121 3122 3123 3124 3125 3126 3127 3127 3127 3128 3128 3128 3128 3128 3128 3128 3128 3128 3127 3126 3126 3125 3124 3124 3123 3123 3123 3122 3122 3121 3120 3119 3118 3117 3116 3115 3114 3113 3112 3110 3109 3108 3107 3105 3103 3102 3100 3099 3098 3096 3094 3093 3091 3090 3088 3086 3084 3083 3081
3104 3105 3105 3104 3103 3102 3102 3101 3101 3100 3099 3098 3099 3100 3101 3101 3102 3103 3104 3105 3105 3105 3108 3111 3114 3116 3118 3120 3121 3122 3123 3124 3124 3125 3126 3126 3127 3127 3126 3126 3126 3126 3125 3125 3125 3124 3124 3123 3123 3122 3122 3121 3121 3120 3120 3119 3118 3117 3116 3115 3114 3113 3112 3111 3110 3109 3107 3106 3105 3103 3101 3099 3098 3097 3095 3094 3092 3091 3089 3087 3086 3084 3082 3080 3078
3103 3103 3103 3102 3101 3101 3100 3099 3100 3099 3098 3096 3096 3097 3098 3099 3100 3102 3101 3101 3102 3103 3106 3109 3111 3113 3116 3118 3119 3120 3121 3122 3123 3124 3125 3125 3125 3125 3124 3124 3124 3123 3123 3123 3122 3122 3122 3121 3121 3120 3120 3119 3119 3118 3118 3117 3116 3115 3114 3113 3112 3111 3110 3109 3108 3107 3105 3104 3103 3101 3099 3097 3096 3094 3093 3092 3090 3089 3087 3085 3083 3081 3080 3078 3076
3101 3101 3100 3100 3100 3099 3099 3098 3098 3098 3097 3096 3095 3095 3096 3097 3098 3099 3098 3099 3100 3102 3105 3108 3110 3112 3114 3116 3117 3118 3120 3121 3122 3123 3123 3123 3123 3123 3122 3122 3122 3121 3121 3120 3120 3120 3120 3119 3119 3118 3118 3118 3117 3117 3116 3115 3114 3113 3112 3111 3110 3109 3108 3107 3106 3104 3103 3102 3101 3099 3097 3095 3094 3092 3091 3089 3088 3086 3084 3082 3081 3079 3077 3076 3074
3100 3099 3099 3099 3098 3098 3097 3097 3097 3096 3095 3095 3094 3095 3095 3095 3096 3096 3096 3098 3100 3102 3105 3107 3109 3111 3113 3115 3116 3117 3119 3120 3120 3121 3121 3121 3121 3121 3120 3120 3120 3119 3119 3118 3118 3118 3118 3117 3117 3116 3116 3116 3115 3115 3114 3113 3112 3111 3110 3109 3108 3107 3106 3105 3103 3102 3101 3099 3098 3096 3094 3093 3091 3090 3088 3087 3085 3084 3082 3080 3078 3077 3075 3074 3072
3098 3098 3098 3097 3097 3097 3096 3096 3095 3095 3094 3094 3094 3094 3094 3095 3095 3096 3097 3098 3100 3102 3104 3107 3109 3110 3112 3113 3115 3116 3117 3117 3118 3118 3118 3119 3119 3119 3118 3118 3117 3117 3116 3116 3116 3116 3116 3115 3115 3114 3114 3114 3113 3113 3112 3111 3110 3109 3108 3106 3106 3105 3103 3102 3101 3099 3098 3096 3095 3094 3092 3090 3089 3087 3086 3084 3083 3081 3079 3077 3076 3074 3073 3071 3070
3096 3096 3096 3096 3095 3095 3095 3095 3094 3094 3093 3093 3093 3093 3094 3094 3095 3095 3096 3097 3099 3101 3103 3105 3107 3109 3110 3111 3113 3114 3114 3115 3115 3116 3116 3117 3117 3116 3116 3115 3115 3114 3114 3114 3115 3114 3114 3113 3113 3112 3112 3111 3111 3110 3109 3109 3108 3107 3105 3104 3103 3102 3101 3099 3098 3096 3095 3094 3092 3091 3089 3088 3086 3084 3083 3081 3080 3078 3076 3074 3073 3072 3070 3068 3067
3094 3094 3094 3094 3094 3094 3094 3094 3094 3093 3093 3093 3093 3093 3093 3093 3093 3093 3094 3096 3098 3100 3102 3103 3105 3107 3108 3109 3111 3112 3112 3113 3113 3114 3114 3114 3114 3114 3113 3113 3113 3112 3112 3112 3112 3112 3112 3111 3111 3110 3110 3109 3108 3108 3107 3106 3105 3104 3103 3102 3101 3099 3098 3097 3095 3094 3092 3091 3090 3088 3087 3085 3084 3082 3080 3079 3077 3076 3074 3072 3071 3069 3068 3066 3064
3091 3092 3092 3093 3093 3093 3093 3093 3093 3093 3093 3093 3093 3093 3093 3092 3092 3093 3094 3096 3098 3100 3101 3103 3104 3105 3106 3108 3109 3110 3111 3111 3111 3111 3111 3111 3111 3111 3111 3111 3110 3110 3110 3110 3110 3110 3109 3109 3108 3108 3107 3106 3105 3104 3104 3103 3102 3101 3100 3099 3098 3096 3095 3094 3092 3091 3090 3089 3087 3086 3084 3082 3081 3080 3078 3076 3075 3073 3071 3070 3068 3067 3065 3063 3061
3090 3090 3090 3091 3092 3092 3092 3093 3092 3092 3092 3092 3092 3092 3092 3092 3093 3094 3095 3097 3098 3100 3101 3102 3103 3104 3105 3106 3107 3108 3109 3109 3109 3109 3109 3109 3109 3109 3109 3108 3108 3108 3108 3107 3107 3107 3107 3106 3105 3104 3104 3103 3102 3101 3100 3100 3099 3098 3097 3096 3095 3093 3092 3091 3090 3088 3087 3086 3085 3083 3081 3080 3079 3077 3076 3074 3073 3071 3069 3067 3066 3064 3063 3060 3058
3088 3088 3089 3089 3090 3091 3091 3091 3092 3092 3092 3092 3092 3092 3092 3093 3094 3094 3095 3097 3098 3099 3101 3101 3102 3103 3104 3104 3105 3106 3106 3106 3107 3107 3107 3107 3107 3106 3106 3106 3105 3105 3105 3105 3105 3104 3104 3103 3102 3102 3101 3100 3099 3098 3097 3097 3096 3095 3094 3093 3092 3091 3090 3088 3087 3086 3085 3084 3082 3081 3079 3078 3077 3075 3073 3071 3070 3068 3067 3065 3063 3062 3060 3058 3055
3086 3087 3088 3088 3089 3089 3090 3090 3091 3091 3091 3091 3091 3092 3092 3093 3094 3095 3096 3096 3097 3098 3099 3100 3100 3101 3101 3102 3102 3103 3103 3104 3104 3104 3104 3104 3104 3104 3103 3103 3103 3102 3102 3102 3102 3101 3101 3100 3099 3099 3098 3097 3096 3096 3095 3094 3093 3092 3092 3091 3090 3088 3087 3086 3085 3083 3082 3081 3080 3078 3077 3075 3074 3073 3071 3069 3067 3066 3064 3062 3061 3059 3057 3055 3053
3085 3086 3087 3087 3087 3088 3088 3089 3090 3090 3090 3091 3091 3091 3092 3093 3093 3094 3095 3096 3096 3097 3097 3098 3098 3098 3099 3099 3099 3100 3100 3101 3101 3102 3101 3101 3101 3100 3100 3100 3099 3099 3099 3099 3099 3098 3098 3097 3096 3096 3095 3095 3094 3093 3093 3092 3091 3090 3089 3088 3087 3086 3084 3083 3082 3081 3079 3078 3077 3076 3074 3073 3071 3070 3069 3068 3066 3065 3062 3060 3058 3057 3055 3053 3051